Wind_Speed
37 37 36 34 33 35 36 34 31 30 30 29 28 28 27 26 26 27 29 30 30 31 29 29 30 26 23 23 24 27 27 25 25 25 25 26 28 29 29 29 29 28 28 29 30 31 31 30 29 30 30 31 31 31 31 30 29 29 29 29 29 29 29 29 28 28 28 29 30 30 30 31 31 30 31 31 31 31 31 30 30 30 30 30 30 30
40 39 37 36 36 38 37 35 33 33 32 31 30 29 29 28 28 29 30 30 31 32 30 29 31 28 25 24 24 26 27 26 26 27 26 27 28 30 31 31 30 30 29 29 30 31 32 31 31 31 31 32 32 32 32 31 30 30 30 30 30 30 30 30 30 29 29 30 31 31 31 32 32 31 31 32 32 32 32 31 31 31 31 30 30 31
42 41 39 38 39 39 38 37 35 34 33 33 32 32 31 31 30 31 31 31 32 33 32 31 33 30 28 27 25 26 27 27 27 27 27 28 30 32 32 32 31 31 31 31 31 32 32 32 31 31 32 33 33 33 33 32 31 31 31 31 31 31 31 32 31 31 31 31 31 32 32 32 33 32 32 33 33 33 33 32 32 32 31 31 31 31
43 42 41 41 41 41 40 39 37 36 35 35 35 34 33 33 33 33 33 33 33 34 34 34 35 34 31 30 27 27 28 27 27 28 28 30 32 34 33 33 32 32 32 32 32 32 32 32 32 31 31 32 33 33 33 33 32 32 32 31 31 31 32 32 32 31 32 33 33 33 33 33 34 33 33 33 33 33 33 33 33 32 32 31 31 32
45 45 44 44 43 42 41 40 38 38 37 37 37 36 36 35 36 36 35 35 34 35 36 37 40 38 34 32 29 28 30 28 28 29 29 31 34 35 34 33 33 33 33 33 33 33 33 32 32 30 30 31 31 32 32 32 32 31 31 31 31 31 31 32 32 31 32 34 35 35 35 35 35 34 34 33 33 33 33 33 32 32 32 32 32 33
47 47 46 45 44 43 42 41 40 41 41 40 39 38 38 38 38 37 37 37 36 36 36 38 43 42 37 34 30 30 32 30 28 29 30 32 35 36 36 35 35 35 34 33 33 34 34 33 32 31 30 30 30 30 31 31 30 29 29 30 30 30 31 32 32 32 33 34 36 36 36 36 35 35 34 33 33 32 33 32 32 32 32 32 33 33
48 48 47 47 45 44 43 43 43 43 43 43 41 40 41 40 39 39 39 40 39 38 38 39 43 45 41 36 32 33 35 31 29 31 31 33 35 35 36 36 37 37 35 34 34 34 34 34 33 32 32 31 31 30 30 29 29 29 30 30 31 30 31 32 33 33 34 35 37 38 37 36 36 35 34 33 32 32 32 32 32 33 33 33 33 34
50 49 49 48 47 46 45 45 45 45 46 45 43 43 42 42 42 42 41 41 41 40 40 41 44 47 43 38 35 36 37 34 32 32 32 33 35 35 36 37 38 37 36 34 34 34 34 34 34 33 33 33 32 32 31 30 30 30 30 31 31 31 32 33 34 35 35 36 38 38 37 36 35 34 33 33 32 32 32 32 33 33 33 34 34 35
51 51 51 50 50 50 48 48 47 47 47 46 45 45 44 43 43 43 43 42 42 42 43 45 46 47 46 41 41 41 39 38 35 33 32 34 37 36 36 37 38 37 35 34 34 34 34 34 34 33 33 33 33 33 33 32 31 31 32 32 32 32 33 33 35 36 36 37 38 38 37 36 35 34 34 33 33 32 32 33 33 33 34 35 35 35
53 53 53 53 53 52 50 50 49 49 48 47 47 47 46 46 45 44 43 42 42 43 45 48 47 48 48 44 44 44 41 40 38 35 35 36 38 38 37 38 38 37 34 33 35 34 34 34 33 33 33 33 33 33 33 32 31 31 32 32 33 33 33 34 35 36 37 37 37 37 37 36 34 34 34 33 33 33 33 33 34 34 35 36 36 36
55 54 54 54 54 53 52 51 50 50 49 49 49 49 48 48 46 44 43 42 43 45 47 50 49 51 51 44 43 45 43 42 41 38 38 38 39 40 39 38 39 36 33 34 35 35 35 35 34 34 33 33 34 34 34 33 32 32 32 33 33 34 34 34 35 36 37 36 36 37 37 36 34 34 33 33 33 34 34 35 35 35 36 36 37 37
55 55 54 54 53 53 52 52 52 51 51 50 50 49 48 47 45 44 44 44 47 48 48 51 51 53 54 47 45 48 47 45 43 40 41 41 42 43 41 40 40 37 34 35 36 37 37 37 37 37 36 36 36 36 36 35 34 33 33 34 34 34 35 35 35 36 37 36 36 37 37 36 35 34 33 33 34 34 35 35 36 36 37 37 37 38
54 54 53 53 54 54 54 54 54 53 52 49 48 46 45 45 45 46 48 49 51 50 48 51 53 56 57 52 49 50 50 48 45 42 43 43 44 45 43 41 41 38 35 36 37 37 38 39 39 40 40 39 38 37 37 37 36 35 35 35 35 36 36 36 36 37 37 36 36 37 37 36 36 34 34 34 34 35 35 36 36 37 37 38 38 39
53 53 54 56 56 56 55 54 53 51 49 48 46 45 45 46 48 50 51 52 52 49 48 50 53 58 59 54 52 52 52 51 48 46 46 45 44 46 46 44 42 41 37 35 36 38 37 38 40 41 41 40 38 38 37 37 37 36 36 36 36 36 36 36 36 36 36 36 36 36 36 36 36 35 34 35 35 35 36 36 37 38 38 39 39 40
53 54 54 54 54 54 53 51 50 48 47 48 47 47 48 48 50 52 51 51 50 49 49 51 56 60 59 56 55 55 55 53 50 48 48 47 46 46 47 46 44 44 41 35 34 36 36 37 39 39 40 39 38 38 37 37 37 37 37 37 37 36 36 36 36 36 36 36 36 36 36 36 35 35 35 35 35 35 36 37 38 38 39 39 40 40
52 53 51 50 50 49 49 48 47 47 47 48 47 48 50 49 49 50 49 49 50 51 52 55 59 61 59 57 58 58 57 54 52 51 50 50 49 47 46 45 43 43 44 39 33 33 35 36 37 37 37 37 37 37 37 37 37 37 37 37 37 36 36 36 35 35 35 36 35 36 36 36 36 35 35 36 36 36 37 37 38 39 39 39 40 41
52 52 50 49 48 47 47 48 47 48 48 48 49 49 49 48 48 48 49 49 50 54 57 59 61 61 60 60 59 58 57 55 54 54 52 51 51 49 46 43 41 40 43 42 37 34 35 35 35 34 34 35 35 36 37 37 37 38 38 37 37 36 35 35 35 35 35 36 36 35 36 36 36 36 36 37 37 37 37 38 38 39 39 39 40 42
52 53 52 51 51 49 48 49 49 49 50 51 52 51 49 49 50 50 51 51 52 56 59 60 62 63 63 61 59 58 58 57 57 56 53 53 53 50 46 42 41 39 40 41 39 37 36 35 34 33 32 33 33 34 35 36 36 36 36 36 36 36 35 35 35 35 36 36 36 36 37 37 37 37 38 38 38 38 38 39 39 39 40 41 42 43
55 56 55 54 54 52 51 51 51 52 52 53 53 51 50 51 52 51 52 53 54 57 60 61 63 65 64 62 59 58 59 59 59 57 55 55 55 49 43 39 38 38 39 39 39 38 36 35 34 33 32 32 32 33 34 34 34 34 34 34 34 35 35 35 36 35 36 36 37 37 38 39 39 39 39 39 39 39 40 40 40 41 41 42 43 45
56 57 58 58 58 56 56 55 55 55 54 54 52 52 52 52 53 54 55 56 56 58 61 62 64 66 63 60 59 59 59 60 59 57 56 57 54 45 37 34 35 37 39 39 38 37 36 35 34 33 33 33 33 33 33 33 33 33 34 34 34 35 35 35 36 36 36 37 37 38 39 40 40 41 41 42 41 41 41 42 42 43 43 44 45 46
56 59 61 62 62 61 61 59 57 56 55 54 53 54 55 55 57 59 59 60 59 61 62 62 67 65 56 55 58 58 58 59 58 58 57 55 51 43 34 33 35 37 39 39 39 38 36 35 35 35 35 35 34 34 34 33 33 34 34 34 34 35 35 35 36 36 37 38 38 39 39 40 41 42 43 43 43 43 43 43 43 43 44 45 46 47
53 55 57 60 63 64 62 60 59 58 57 57 57 58 59 59 61 61 63 64 63 63 61 61 68 63 47 49 57 56 57 58 57 58 57 52 48 44 38 35 37 40 41 41 40 39 38 36 36 37 37 37 36 35 35 35 35 35 35 35 35 35 36 36 37 37 38 39 39 40 40 41 41 42 43 43 44 44 43 43 43 44 45 46 47 48
50 51 54 58 62 63 62 60 61 61 61 62 63 64 64 64 66 65 66 66 64 64 63 63 70 61 44 48 56 55 57 59 55 55 54 51 47 44 40 36 37 41 42 41 40 40 39 38 38 37 37 37 38 37 37 37 36 37 37 37 38 38 38 38 38 38 39 40 40 41 42 42 42 42 43 43 43 43 43 43 44 45 46 47 48 50
49 51 54 56 58 60 60 61 61 62 64 66 68 69 68 69 69 67 67 67 66 68 67 68 74 62 44 48 55 54 57 57 52 50 49 50 50 47 44 39 37 40 41 40 39 39 40 40 39 39 38 39 39 39 39 39 39 39 40 40 41 40 39 38 37 37 38 40 41 42 43 43 43 43 43 44 44 44 44 44 45 47 47 48 49 51
48 48 49 51 54 57 59 61 62 63 65 66 66 66 67 67 67 67 69 68 68 70 68 70 76 64 47 49 53 52 53 53 51 48 46 48 52 51 49 44 41 41 41 39 38 39 42 42 42 42 41 41 40 40 41 42 41 41 41 41 41 40 39 37 37 37 38 40 41 43 44 44 44 44 44 45 45 45 45 46 47 48 48 49 50 51
50 49 47 48 52 58 62 63 62 61 60 59 59 59 59 60 61 62 63 64 65 68 67 70 73 63 52 52 52 50 50 51 51 50 48 49 53 53 52 49 46 43 41 40 40 41 43 44 44 43 42 41 40 41 42 42 42 41 41 41 41 40 38 37 37 37 38 40 42 43 44 45 45 45 45 45 45 46 46 46 47 48 49 49 50 51
55 54 52 51 53 58 62 63 61 60 59 59 58 57 56 56 57 57 58 61 64 65 67 68 67 61 54 51 50 47 48 50 51 51 51 52 54 54 53 54 52 45 42 42 42 44 46 45 45 43 41 41 41 42 42 41 41 41 40 40 40 39 39 38 39 39 39 41 42 44 45 45 45 45 45 45 45 45 45 46 47 48 49 50 51 51
57 58 57 55 54 55 56 57 58 60 61 62 61 60 58 57 56 57 59 62 62 64 67 64 61 60 55 48 47 48 48 49 51 52 54 55 56 55 55 57 57 50 46 46 46 48 49 48 46 44 42 42 43 43 43 42 42 42 40 40 39 39 39 39 39 40 40 41 42 44 44 45 45 45 45 44 44 45 45 46 48 49 50 51 51 51
57 58 58 59 58 55 53 52 53 55 57 58 59 59 58 58 58 59 62 62 62 65 67 61 58 61 57 49 48 48 48 49 51 54 57 57 57 57 56 58 58 53 49 51 52 53 54 52 49 45 43 43 44 44 44 43 43 43 41 39 38 38 39 40 40 40 40 40 42 43 44 45 46 46 46 46 46 47 48 49 51 52 52 52 51 51
58 56 55 57 58 57 56 54 54 55 56 56 56 56 56 57 58 60 63 64 64 66 66 61 60 61 57 50 49 48 49 51 52 55 57 57 56 57 57 58 58 55 53 55 58 59 59 56 51 46 44 45 46 46 46 46 46 45 43 40 39 39 40 40 40 40 39 40 42 43 45 46 47 48 48 48 49 51 52 53 52 51 50 50 50 51
60 56 52 54 57 56 55 54 55 57 59 59 60 60 59 58 59 61 63 63 63 65 64 62 63 63 57 52 50 49 51 53 54 54 56 55 54 55 56 57 58 57 56 57 61 62 61 58 54 49 46 46 48 49 48 48 48 47 44 41 41 42 42 41 40 39 39 40 42 43 45 47 48 49 50 51 53 54 54 52 49 48 48 49 50 52
62 58 55 56 59 59 54 52 53 55 58 60 60 60 62 61 61 62 61 59 60 63 63 63 64 63 57 52 51 52 54 56 56 55 55 54 53 55 57 58 58 58 58 59 61 61 58 56 54 52 50 49 48 50 50 50 49 47 44 44 45 45 44 42 39 38 39 40 42 44 46 48 49 51 53 54 54 53 50 48 48 49 51 51 52 53
63 61 59 57 59 59 54 52 54 57 62 62 57 56 60 61 60 59 59 60 61 60 61 63 64 60 55 54 55 55 55 55 55 55 55 55 55 57 58 58 58 59 58 57 56 54 52 51 51 52 51 50 49 50 52 51 49 47 47 47 48 47 45 42 40 39 40 41 43 44 46 49 50 51 52 51 50 49 48 49 52 53 54 54 55 56
63 64 62 59 58 57 52 51 55 61 67 65 57 55 57 58 58 59 61 63 62 60 60 61 60 58 55 55 54 53 53 53 53 53 54 54 55 56 57 57 58 57 54 51 49 48 47 48 49 50 50 51 51 52 52 50 49 49 50 50 49 48 45 42 41 40 41 42 43 45 48 50 50 48 47 47 48 49 51 54 56 56 56 57 57 56
65 65 65 64 63 61 56 54 59 65 68 64 59 58 59 58 59 62 65 64 62 60 59 57 55 54 52 50 50 50 52 53 53 54 54 53 53 54 55 55 54 52 50 48 48 49 49 50 51 50 51 52 53 53 51 50 50 51 52 52 50 48 45 43 41 41 41 42 44 45 47 48 47 46 46 48 50 53 55 56 56 57 57 57 56 56
68 67 67 66 66 65 62 61 64 66 65 63 61 60 60 61 62 63 65 62 56 54 55 56 55 53 52 51 50 51 54 55 57 57 55 53 52 52 52 51 50 50 50 50 51 52 53 53 52 52 52 53 53 53 52 52 53 54 54 53 50 48 45 44 42 41 42 43 44 45 45 45 46 47 49 52 54 55 55 56 56 56 55 55 55 57
70 68 67 67 68 68 67 66 65 64 62 61 60 61 61 62 61 60 60 59 56 56 59 60 59 56 55 52 50 52 55 58 61 59 55 55 56 55 55 55 53 54 55 54 55 55 54 54 54 53 54 54 54 54 54 55 56 56 55 53 50 48 47 45 44 43 43 44 45 46 46 47 49 51 53 55 55 55 55 55 54 52 52 54 57 59
72 68 65 64 64 63 64 63 62 63 62 57 54 55 56 58 59 59 62 63 62 62 61 60 58 56 54 51 50 51 54 59 62 59 55 56 59 59 60 60 59 59 59 58 57 55 54 54 54 54 54 54 54 56 57 58 58 57 55 52 50 49 48 47 46 46 46 46 47 48 49 51 52 53 54 54 54 55 54 53 51 51 54 58 60 59
76 71 65 62 60 58 59 62 63 64 62 54 48 48 50 53 55 60 65 66 63 60 58 57 56 54 51 49 49 51 55 59 61 56 53 56 60 61 62 62 61 61 60 58 56 54 54 53 53 53 53 54 56 57 58 58 57 55 53 51 50 49 48 48 48 48 48 49 49 50 52 52 53 53 53 54 55 54 51 49 52 56 58 59 58 57
77 75 71 69 66 61 61 65 67 67 63 54 48 49 50 50 53 59 64 63 58 53 52 53 53 51 48 47 49 52 56 57 56 52 51 54 57 59 61 60 59 58 57 56 55 53 52 52 52 53 54 55 56 56 56 55 53 52 51 50 49 48 48 48 49 49 50 51 51 53 54 54 54 53 54 54 54 51 48 50 55 58 59 57 55 56
77 76 76 78 76 68 64 65 68 69 64 55 52 53 53 53 56 61 61 57 53 51 50 52 53 51 50 49 51 53 54 55 54 51 49 50 51 54 57 58 57 56 53 52 52 52 52 52 53 54 55 55 54 54 53 52 51 50 50 49 49 49 49 50 50 51 52 53 53 54 55 55 55 55 54 52 48 47 50 54 56 56 55 53 52 55
79 78 78 81 82 77 70 65 66 66 61 56 56 57 57 57 58 58 56 53 52 52 53 54 55 55 54 54 54 55 54 54 54 52 50 50 50 51 53 55 55 54 52 51 52 52 53 54 55 55 55 55 54 54 53 52 51 51 51 51 51 51 50 50 51 51 52 53 53 54 54 55 55 54 52 49 47 49 53 54 53 52 53 53 55 59
74 75 77 79 81 79 74 69 67 63 56 54 58 59 59 58 55 53 53 53 53 53 54 55 57 58 59 58 57 57 56 55 54 54 53 53 53 52 53 53 54 54 54 54 54 55 55 55 55 55 55 55 55 54 54 54 53 53 52 51 51 50 49 50 51 52 53 54 55 55 56 55 54 53 51 50 51 52 52 51 50 51 55 58 61 63
72 71 72 74 76 76 75 73 69 61 53 53 56 57 57 57 56 57 58 56 53 53 54 55 56 58 59 59 59 59 58 57 57 56 55 55 55 55 55 55 56 56 57 56 57 57 56 56 56 56 56 56 55 55 54 53 52 51 50 50 49 50 51 52 53 54 55 56 56 56 55 54 53 53 53 53 53 52 51 50 52 54 57 59 60 61
79 76 74 75 76 77 77 75 71 63 57 55 56 56 56 57 58 60 60 56 53 53 54 54 56 57 57 58 59 60 60 59 58 57 56 56 56 56 56 57 57 57 58 58 58 58 58 57 57 56 55 54 53 52 51 50 50 49 50 50 51 52 52 52 53 53 53 53 53 53 53 53 53 53 54 54 54 53 53 54 55 56 57 58 59 60
77 80 80 79 79 78 78 77 73 70 67 65 63 61 60 59 59 58 57 56 56 57 57 56 56 55 55 55 56 58 57 56 53 52 51 51 51 52 53 54 54 54 55 56 57 57 57 56 54 53 51 49 49 49 49 49 49 50 50 51 51 50 50 49 49 49 50 50 51 52 52 53 54 54 55 55 55 55 55 55 56 56 57 57 58 59
63 70 75 77 77 77 78 77 74 71 69 66 65 66 65 65 64 63 61 60 59 58 57 56 55 55 55 55 55 55 53 51 50 50 51 52 53 54 55 55 55 55 55 56 56 56 56 54 53 51 50 49 49 48 49 49 50 50 50 48 47 46 46 47 48 49 50 51 52 53 54 55 55 55 56 56 55 55 55 55 56 56 57 57 57 58
54 57 62 66 68 69 71 71 69 69 68 63 61 63 65 64 64 63 61 59 58 58 58 57 56 57 57 57 57 57 56 56 56 55 56 56 57 57 57 57 57 56 56 57 57 57 56 55 54 52 51 50 50 49 49 49 48 47 45 44 44 46 47 49 51 53 54 55 55 56 56 56 56 56 55 55 55 55 55 55 55 56 56 56 57 58
58 57 57 59 61 62 63 63 63 66 66 61 56 55 56 56 57 58 58 59 60 61 61 59 58 58 58 57 56 55 53 53 53 55 56 56 56 55 55 55 55 55 55 56 56 56 55 54 54 53 52 51 50 49 47 45 44 43 45 47 50 52 54 55 55 56 57 57 56 56 55 55 55 54 54 54 54 54 55 55 55 55 56 57 58 59
62 61 60 62 63 63 61 58 57 61 63 60 55 53 53 54 56 57 58 59 60 60 59 59 58 58 57 55 52 49 47 46 46 48 49 49 49 49 49 49 49 49 50 52 52 51 50 49 49 49 48 48 46 45 45 45 47 50 53 55 56 57 57 57 57 57 56 56 55 55 54 54 54 54 54 54 54 54 54 54 55 56 57 58 59 60
72 68 67 69 71 69 64 60 59 60 60 58 58 57 57 57 58 58 58 58 58 58 58 58 57 57 56 54 51 48 47 46 45 45 45 45 45 45 44 45 45 45 45 47 48 47 47 46 47 47 48 49 49 50 52 54 56 57 57 57 57 56 56 57 56 55 55 54 54 54 54 54 54 54 54 54 53 54 54 55 56 57 58 59 61 62
Wind_Direction
236 237 238 240 241 242 244 246 248 250 253 255 257 260 262 264 266 267 269 272 274 275 277 280 280 281 283 283 285 288 292 297 298 300 304 305 305 305 304 303 301 300 299 297 296 295 294 293 291 291 291 292 292 292 292 292 290 287 284 282 282 282 284 286 289 291 291 290 288 286 285 284 283 283 282 281 279 277 276 274 272 271 269 268 267 268
237 239 239 240 242 244 246 248 250 252 254 257 259 261 263 264 265 267 270 272 274 276 279 280 281 283 284 283 284 288 292 296 297 300 303 303 304 303 301 300 301 301 300 298 295 293 292 292 291 291 291 290 289 289 289 290 288 285 283 281 282 283 283 285 286 288 289 289 287 286 284 283 282 281 281 280 278 277 276 274 272 270 269 268 268 268
239 240 240 241 243 246 248 249 251 253 255 258 260 261 263 265 266 268 270 272 275 278 280 281 281 283 283 283 286 289 291 294 297 299 301 302 301 299 298 299 301 302 300 298 295 293 291 291 291 291 290 289 289 288 287 286 285 284 283 283 284 285 284 284 285 286 288 289 288 286 283 281 280 279 278 278 277 276 274 273 271 270 269 269 268 269
240 241 241 242 244 246 249 250 252 254 256 258 260 262 264 265 266 267 269 272 275 278 281 283 282 281 282 284 287 290 292 294 297 298 301 301 298 295 297 300 301 301 299 298 296 294 292 292 291 291 291 291 290 288 285 283 283 283 283 283 285 285 284 283 284 285 287 288 288 287 285 282 280 279 278 276 275 274 273 272 271 270 269 269 269 269
240 241 242 243 245 247 249 252 254 255 256 258 259 262 263 264 265 267 270 272 274 278 281 284 282 279 280 282 287 291 292 295 298 300 302 299 295 296 299 301 301 300 299 297 295 294 293 292 290 290 290 291 291 288 285 283 282 282 282 282 282 282 282 282 283 284 287 288 289 288 286 283 281 279 278 277 275 273 272 271 270 269 268 267 267 269
241 243 244 245 246 248 250 253 254 256 256 257 259 261 262 263 265 268 271 272 274 276 278 282 282 281 281 281 286 291 291 295 301 302 300 297 296 299 301 303 302 300 299 296 293 292 291 290 287 286 286 287 288 288 286 284 284 282 281 280 280 281 281 282 283 284 287 289 290 289 287 284 281 280 279 278 275 273 271 269 268 267 266 266 267 268
243 245 246 246 247 248 250 252 254 255 255 256 257 259 261 264 266 268 270 272 274 275 276 278 280 282 282 283 287 290 290 295 301 300 298 297 298 300 302 304 303 301 300 296 293 290 289 288 286 284 284 284 285 286 286 285 283 281 279 279 280 281 281 282 282 284 287 290 291 291 288 286 283 280 278 276 274 272 269 268 267 267 266 266 268 269
246 247 248 249 249 249 249 251 252 253 254 256 257 259 261 263 266 267 269 270 272 273 275 277 278 281 282 284 288 287 289 295 298 297 299 299 299 301 303 303 302 301 300 296 293 290 288 286 285 284 284 285 285 285 284 283 282 281 280 281 281 281 280 281 283 284 286 289 291 290 289 286 284 280 277 275 273 271 269 268 268 267 267 267 268 269
246 247 248 248 249 249 249 250 251 253 255 257 258 260 261 263 265 266 267 268 270 272 274 276 277 280 282 285 287 287 290 294 296 298 301 300 299 301 303 302 301 300 298 295 291 289 287 285 284 283 284 285 286 286 285 284 284 283 282 282 282 281 281 282 283 284 285 288 289 288 287 285 282 280 277 275 273 271 269 268 268 268 268 268 269 270
246 246 247 248 249 250 250 251 252 254 256 258 259 261 262 262 263 264 265 267 269 271 274 277 278 280 281 282 284 286 290 293 295 300 302 301 300 302 302 301 300 300 296 291 289 288 286 284 283 282 283 285 286 287 288 288 286 285 284 283 282 281 281 282 282 283 284 286 286 286 285 284 281 279 276 275 273 271 270 269 268 268 268 269 270 271
247 246 247 248 249 250 251 252 253 255 257 258 259 260 261 261 262 264 265 267 268 270 275 277 279 281 281 280 281 285 289 291 296 301 302 302 302 301 302 300 299 300 293 287 286 286 286 284 283 282 283 285 287 288 288 287 286 286 285 284 283 281 281 280 280 281 282 284 285 285 285 284 281 278 275 273 272 270 269 269 268 268 269 271 272 272
250 250 250 250 251 251 251 253 254 255 256 257 258 259 261 263 264 265 266 267 267 270 274 276 277 279 279 279 282 286 289 292 296 300 301 303 302 302 302 300 300 300 291 283 282 283 283 283 282 282 283 284 286 286 285 285 284 285 284 283 282 281 280 279 279 280 282 283 283 283 283 282 281 278 275 272 271 270 269 269 269 270 271 272 272 272
252 252 252 252 252 251 251 251 252 253 255 257 258 260 262 265 265 265 265 266 267 270 272 274 276 277 277 279 283 286 289 293 296 299 301 302 302 302 302 300 300 300 290 282 281 282 281 282 281 281 281 282 283 283 282 282 282 282 283 283 283 282 281 280 280 280 281 282 283 283 282 281 280 277 274 272 271 270 270 270 271 271 271 271 272 272
251 251 251 251 251 251 251 251 252 254 255 257 258 259 260 261 263 264 265 266 267 270 271 272 273 275 277 281 285 286 289 292 296 299 300 301 300 301 303 302 300 296 289 281 280 282 283 284 284 281 279 279 280 280 281 280 280 280 281 283 283 283 283 282 281 281 281 282 283 282 281 280 278 276 273 272 272 272 272 271 271 271 271 272 272 273
252 251 251 252 253 253 254 254 255 256 256 256 256 257 258 260 264 266 267 267 269 269 269 268 270 274 278 283 286 286 288 292 296 299 300 300 299 299 301 303 299 293 288 282 278 280 285 289 289 284 279 278 279 279 280 280 279 279 280 282 284 284 283 282 280 280 280 281 281 281 281 279 277 274 273 273 273 273 273 272 271 271 271 272 272 273
254 253 253 254 255 256 257 257 257 257 257 257 257 257 259 262 264 266 266 267 269 268 266 267 270 275 280 283 284 286 289 293 297 298 298 298 298 298 300 300 296 289 286 285 284 284 287 290 291 287 282 279 279 279 279 279 279 279 280 282 283 283 282 280 279 278 278 279 280 280 279 278 276 274 273 272 272 272 272 271 271 271 271 272 273 273
255 255 254 255 255 255 256 257 256 256 257 257 257 258 260 261 261 263 264 265 266 266 268 270 273 277 279 281 282 286 290 294 295 295 296 296 296 297 299 297 291 284 282 285 288 288 288 289 290 288 284 281 280 280 279 279 279 280 280 281 282 282 282 280 279 278 278 279 280 279 278 277 276 274 272 271 271 271 272 272 272 272 273 273 273 273
255 255 253 253 254 253 254 255 255 255 256 257 257 258 259 259 259 261 263 264 265 267 270 272 274 276 278 280 283 288 291 292 292 293 295 294 294 297 299 295 289 283 280 282 285 287 288 289 288 288 286 284 282 280 280 280 280 281 281 282 283 283 283 282 281 280 280 280 280 279 277 276 275 273 272 271 271 271 271 272 272 272 272 272 272 272
252 254 253 252 253 253 253 253 253 254 255 257 258 259 259 259 261 262 264 265 266 268 269 270 272 274 277 282 286 289 289 290 291 293 294 293 294 298 297 292 286 283 280 280 282 285 288 288 287 286 286 286 284 283 283 283 283 283 284 284 285 286 285 284 283 282 281 280 279 278 277 276 275 274 273 273 271 271 271 271 271 271 272 272 272 273
250 252 252 252 253 253 252 252 252 254 255 257 258 259 260 261 262 262 262 264 265 266 268 269 270 274 279 284 286 287 288 289 291 292 292 292 295 297 296 290 283 279 279 279 281 284 286 286 285 284 284 285 285 285 286 286 286 286 286 286 287 287 286 285 284 282 281 280 278 277 277 276 276 275 274 274 273 272 271 271 272 272 273 273 273 274
250 251 252 252 253 253 254 254 255 256 256 258 258 259 259 260 261 262 262 263 263 264 266 267 269 275 282 284 284 286 287 288 289 290 291 292 294 293 290 285 281 279 279 280 281 283 285 285 284 283 283 284 284 285 286 288 288 288 287 288 288 288 288 287 285 282 280 278 277 277 276 276 275 275 275 275 274 274 273 273 274 274 274 274 274 275
251 252 252 252 253 254 256 256 257 256 256 256 257 257 258 259 260 261 261 261 262 263 265 267 270 275 282 283 283 285 285 285 288 289 290 290 289 288 286 283 281 280 281 281 282 283 284 283 281 281 283 284 284 285 287 289 289 289 288 288 289 291 291 289 286 283 281 279 278 278 277 276 275 276 276 276 276 275 275 275 275 274 275 275 276 277
252 252 251 251 252 252 253 253 253 254 255 256 256 258 259 259 260 260 262 264 266 267 269 271 273 276 280 282 282 283 284 284 286 287 288 286 285 287 287 284 281 280 280 280 281 282 283 281 279 280 281 282 283 284 287 290 290 289 287 287 289 291 291 289 287 285 284 282 281 279 278 278 277 276 276 276 276 276 276 276 276 276 277 277 278 279
254 255 255 254 254 253 253 252 253 253 255 256 258 259 260 260 262 262 264 265 266 267 270 273 274 276 278 279 280 281 282 282 282 283 284 285 286 287 287 285 282 280 279 279 280 280 280 280 280 280 281 282 282 284 287 290 291 290 289 288 289 289 288 287 286 285 284 283 281 280 280 279 278 277 276 275 276 276 276 276 277 277 277 278 279 280
255 258 258 257 256 254 253 253 253 255 257 258 260 261 262 263 264 264 265 266 265 268 271 272 273 276 278 278 279 279 280 281 282 282 281 282 285 286 287 286 282 280 280 280 279 278 278 279 279 280 281 280 281 283 286 289 290 291 290 289 289 288 287 286 285 285 285 283 282 281 280 279 278 278 277 276 275 276 276 276 277 277 277 278 279 280
254 255 256 255 255 254 254 255 256 258 261 262 262 262 263 264 264 265 266 267 267 269 269 269 271 276 280 279 279 279 280 280 281 281 281 282 282 283 286 286 284 284 285 283 280 278 277 277 278 278 279 278 279 282 286 288 289 289 289 289 288 287 287 286 286 286 286 284 283 281 279 279 278 278 277 276 276 275 276 276 276 277 278 279 280 282
254 254 254 255 255 255 255 257 259 260 261 261 261 261 262 262 262 263 262 263 267 269 267 268 274 278 279 278 279 279 277 277 277 279 280 280 281 283 286 286 286 287 287 284 281 279 278 277 277 277 277 278 280 284 286 286 286 287 287 287 287 287 286 286 287 287 287 285 283 281 279 278 278 277 277 276 276 275 275 276 277 278 279 280 282 283
255 254 253 254 255 256 256 257 259 260 260 261 262 262 263 264 263 262 262 265 268 268 267 272 277 277 275 275 275 274 273 274 276 278 279 279 281 284 285 285 284 285 285 284 281 279 278 278 278 278 279 281 283 285 285 285 285 287 287 287 286 286 287 287 288 288 286 285 282 280 278 277 276 276 276 275 275 276 277 278 279 280 281 282 283 285
256 256 256 256 256 256 256 256 257 260 261 262 263 264 265 265 264 264 266 268 269 268 270 273 273 271 272 273 272 272 272 274 275 277 278 280 282 282 281 281 281 281 282 281 280 278 278 277 278 280 282 283 284 285 284 285 286 287 287 286 286 287 288 289 288 287 285 283 281 278 277 276 275 275 275 275 276 277 278 279 280 281 282 283 284 284
255 257 259 260 260 259 258 257 258 260 261 262 262 263 263 263 264 266 267 267 267 268 269 270 268 268 271 273 271 270 272 274 275 277 277 278 278 278 277 278 279 279 278 277 276 276 276 276 278 281 282 282 283 284 284 286 287 287 286 286 286 287 288 288 287 285 283 281 278 277 276 275 275 274 275 275 276 276 277 278 279 281 282 283 284 284
255 257 258 260 262 261 258 258 259 260 261 261 260 260 261 263 264 265 266 266 266 267 269 270 270 269 270 271 271 271 272 272 272 272 272 272 273 273 273 274 275 276 276 275 275 275 277 279 282 283 281 280 281 283 284 285 286 286 285 286 286 287 287 287 285 283 280 278 275 275 274 274 273 274 274 275 275 276 276 277 279 282 284 285 286 286
253 254 255 257 259 259 257 258 259 259 260 259 256 257 260 262 264 265 266 268 268 270 271 270 269 270 272 273 271 268 267 267 266 266 267 268 269 269 269 271 272 274 275 275 276 278 281 282 283 282 279 278 279 282 283 284 285 284 284 285 286 287 287 287 284 280 276 274 272 272 272 272 273 273 275 275 275 276 278 280 283 286 287 288 288 287
251 251 254 257 259 259 258 258 260 259 258 255 253 258 263 264 265 266 266 266 267 268 268 267 269 271 271 269 267 266 265 266 267 268 268 268 267 267 269 271 272 273 274 277 279 282 283 282 280 279 278 278 279 281 282 283 283 281 282 284 286 286 286 285 282 277 274 272 271 272 271 272 273 274 275 276 277 279 281 283 285 286 286 286 286 287
251 250 252 256 260 261 259 260 259 255 253 255 257 260 263 263 263 264 264 264 264 264 265 266 269 270 270 270 271 271 268 267 266 266 265 266 266 267 268 269 271 273 276 280 282 282 280 277 276 276 277 278 280 282 283 282 280 280 282 284 285 285 284 283 280 278 275 273 272 271 271 271 273 275 276 278 279 281 283 284 284 284 284 284 286 286
253 252 253 255 259 260 259 257 254 251 254 260 262 261 261 262 264 265 265 264 263 263 265 268 270 271 271 271 271 269 267 265 263 262 262 263 264 265 266 268 271 275 278 279 278 276 275 275 276 277 279 280 281 282 281 279 278 280 282 283 283 282 281 281 280 278 276 274 272 271 270 271 273 275 277 278 280 281 282 282 282 281 282 284 286 285
254 254 254 256 258 259 257 255 253 254 257 260 260 260 262 264 266 266 266 266 266 266 269 271 270 270 270 269 267 266 266 264 262 261 262 264 267 268 269 270 272 274 274 274 273 273 274 276 277 279 280 280 281 280 279 278 278 280 282 282 281 280 279 279 279 278 276 274 271 269 269 270 273 276 278 280 281 281 280 279 280 282 284 285 285 284
253 256 257 258 259 258 257 256 255 256 256 255 257 261 263 263 265 265 265 266 266 267 270 271 271 271 271 270 267 264 263 262 261 261 264 266 268 270 270 271 270 270 270 270 271 272 274 275 277 277 277 277 277 277 276 277 278 279 280 280 279 279 278 278 278 277 276 274 272 272 272 274 276 278 280 281 280 279 279 280 283 284 283 280 278 278
251 254 256 257 258 257 255 255 255 255 253 252 256 261 261 261 261 261 260 261 263 267 270 273 273 272 269 266 264 262 260 260 262 265 266 265 265 267 267 267 267 266 267 267 269 270 271 272 273 273 273 274 273 273 274 276 277 278 278 278 278 277 277 277 276 276 276 275 275 275 276 278 280 281 281 280 279 279 282 284 283 279 275 273 274 277
250 251 251 253 255 256 256 256 258 258 255 251 251 255 256 258 258 257 256 258 263 268 270 271 270 267 263 262 261 259 258 260 265 269 266 261 261 262 263 264 264 264 265 267 268 268 268 269 270 270 271 271 272 273 274 275 277 277 277 277 277 277 276 276 276 276 276 276 277 277 277 279 280 280 279 279 280 282 284 281 276 272 270 272 277 281
250 249 248 249 253 256 259 260 261 261 259 254 252 253 254 256 257 255 255 260 266 267 266 266 265 262 261 260 258 256 258 262 266 266 262 259 260 260 261 262 263 264 265 267 267 267 267 268 269 270 271 272 273 274 275 275 276 276 276 276 276 276 276 277 277 278 278 279 278 278 278 279 279 277 277 278 280 280 277 272 270 269 272 277 282 283
250 249 247 248 251 254 258 261 263 263 261 258 258 260 260 260 258 256 258 265 268 265 263 263 263 261 259 257 255 255 258 260 262 263 262 261 261 260 261 263 264 265 265 265 266 266 267 269 270 271 272 273 273 274 274 275 275 275 275 276 276 276 277 278 278 279 279 279 278 277 278 280 280 280 281 281 279 274 269 268 270 274 278 281 281 279
251 250 248 248 250 252 255 260 263 263 262 262 262 263 263 262 262 262 264 267 265 262 260 260 259 258 256 254 253 254 256 258 261 263 262 261 261 260 261 262 263 264 264 265 266 266 268 269 270 271 272 272 273 273 273 273 274 274 275 275 276 276 277 277 277 278 278 278 279 279 280 281 282 282 283 281 276 272 271 274 277 280 281 279 276 274
252 252 251 249 249 252 254 257 261 264 264 263 264 264 264 265 267 267 265 263 261 259 258 256 256 257 256 256 255 256 256 257 258 260 261 261 261 260 259 260 262 262 264 265 266 267 268 269 270 270 271 272 272 272 272 273 273 273 274 274 275 275 276 276 277 277 278 279 280 281 281 282 282 282 281 279 277 276 278 279 278 276 274 273 273 273
250 253 254 252 250 252 253 253 258 263 264 261 261 262 264 265 265 262 260 259 259 258 258 257 257 258 258 257 257 257 257 258 258 259 260 260 260 259 259 260 262 262 264 265 266 267 268 269 270 271 271 271 271 271 271 271 271 271 271 272 273 275 275 276 277 278 279 280 281 281 282 282 282 281 280 279 279 279 279 277 274 272 272 273 274 275
250 250 253 255 254 255 256 254 255 259 261 259 258 260 262 262 260 258 258 258 259 260 260 259 259 260 261 260 259 258 258 258 258 259 259 260 261 261 261 262 263 263 265 265 266 267 268 270 271 271 270 269 269 268 268 268 269 270 271 272 274 275 276 277 279 280 280 281 282 282 282 281 281 280 279 279 279 278 277 276 275 275 275 276 277 278
250 250 252 255 256 256 256 255 253 254 257 258 258 258 258 258 258 258 258 260 262 264 264 263 261 262 263 264 262 259 257 256 256 257 259 261 263 264 265 265 265 265 265 266 267 268 269 270 270 268 266 265 265 265 266 268 269 271 272 274 275 277 278 279 280 280 281 281 281 281 280 280 279 278 278 278 278 277 277 277 277 277 277 277 278 279
243 246 249 252 254 255 255 255 254 253 254 255 256 256 256 256 257 258 260 261 262 263 263 262 262 263 264 265 265 263 261 260 260 260 262 264 266 267 268 267 267 267 267 267 268 268 268 268 266 263 263 263 265 266 268 269 271 273 274 275 277 277 278 280 280 280 280 279 279 279 278 278 277 277 277 277 277 277 277 277 277 277 277 278 280 283
240 239 242 245 248 251 254 254 253 251 251 251 251 252 254 255 255 255 256 256 255 256 258 259 261 262 264 266 266 266 266 266 266 266 267 267 267 267 267 266 266 266 267 267 267 266 264 263 261 260 262 264 267 269 270 271 273 274 274 276 277 279 280 280 280 279 279 278 278 277 277 276 276 276 277 277 277 276 276 276 277 278 280 282 285 288
247 244 242 241 241 243 247 248 248 247 247 246 245 245 246 248 249 248 248 249 251 254 256 257 258 260 262 263 264 265 266 266 266 267 267 267 267 266 266 266 266 265 265 265 264 261 259 258 258 260 263 266 268 269 270 271 272 274 276 278 280 281 280 280 279 278 278 277 277 276 276 276 276 276 277 277 276 276 276 277 279 281 284 287 289 291
249 249 249 247 243 241 241 241 242 244 242 240 240 242 243 244 246 247 247 249 251 252 254 254 256 257 258 259 259 259 261 264 264 264 265 265 265 265 265 264 264 264 263 262 262 262 262 262 263 264 266 267 268 269 270 272 275 277 279 280 280 280 279 278 277 277 276 276 276 276 276 276 276 276 276 275 276 276 278 280 283 286 288 290 292 292
246 249 253 254 252 249 246 243 244 248 246 241 241 245 247 249 251 252 252 252 253 253 254 255 255 256 258 260 261 258 258 259 260 260 261 262 261 262 263 263 264 264 265 265 266 269 271 271 271 272 272 272 273 274 275 276 278 278 279 279 278 277 276 276 275 275 276 276 276 275 275 275 275 275 275 276 277 279 282 285 287 289 291 291 292 292
Height
5841 5843 5844 5846 5847 5847 5847 5849 5851 5852 5853 5853 5854 5855 5856 5857 5857 5856 5856 5856 5856 5856 5858 5858 5858 5861 5863 5863 5862 5860 5860 5862 5862 5861 5861 5860 5859 5857 5857 5856 5855 5855 5854 5853 5851 5850 5850 5850 5850 5849 5849 5848 5848 5847 5846 5846 5845 5845 5844 5844 5843 5843 5842 5842 5842 5841 5841 5840 5839 5838 5838 5837 5837 5836 5836 5835 5835 5834 5834 5833 5833 5833 5832 5832 5832 5832
5837 5839 5841 5843 5843 5843 5844 5847 5848 5849 5849 5850 5851 5852 5852 5853 5853 5853 5853 5854 5853 5853 5855 5855 5854 5857 5859 5860 5860 5859 5858 5859 5859 5858 5858 5857 5856 5855 5853 5852 5852 5851 5851 5850 5848 5847 5846 5846 5846 5846 5845 5844 5844 5843 5842 5842 5842 5841 5841 5840 5840 5840 5839 5839 5838 5838 5837 5836 5835 5835 5834 5833 5833 5832 5832 5831 5831 5830 5830 5830 5829 5829 5829 5829 5828 5828
5833 5836 5838 5838 5839 5840 5842 5843 5845 5846 5846 5847 5848 5848 5849 5850 5850 5850 5850 5851 5850 5850 5851 5852 5851 5853 5855 5856 5857 5857 5856 5857 5856 5856 5856 5855 5853 5851 5850 5849 5849 5848 5847 5846 5845 5844 5843 5842 5842 5842 5841 5840 5839 5839 5838 5838 5837 5837 5836 5836 5836 5836 5835 5835 5835 5834 5833 5833 5832 5831 5831 5830 5829 5828 5828 5828 5827 5827 5826 5826 5826 5825 5825 5825 5825 5825
5830 5832 5833 5834 5836 5837 5838 5840 5842 5842 5843 5844 5844 5845 5845 5846 5846 5846 5847 5847 5848 5847 5847 5847 5846 5848 5851 5852 5854 5854 5853 5854 5854 5853 5853 5852 5849 5848 5847 5847 5846 5845 5843 5842 5841 5840 5839 5838 5838 5838 5837 5836 5835 5835 5834 5833 5833 5833 5832 5832 5832 5832 5831 5831 5831 5830 5829 5828 5828 5827 5827 5826 5825 5824 5824 5824 5823 5823 5822 5822 5822 5822 5822 5822 5821 5821
5826 5827 5828 5830 5832 5834 5835 5837 5838 5839 5839 5839 5840 5841 5841 5841 5841 5842 5843 5844 5845 5845 5844 5843 5841 5842 5846 5849 5851 5851 5850 5851 5851 5851 5850 5848 5845 5844 5844 5844 5842 5841 5840 5838 5838 5836 5835 5834 5834 5834 5833 5832 5831 5831 5830 5829 5829 5829 5829 5828 5828 5828 5827 5827 5827 5826 5825 5824 5823 5823 5822 5821 5821 5820 5820 5820 5819 5819 5819 5818 5818 5818 5818 5818 5818 5818
5822 5823 5825 5827 5828 5830 5832 5834 5834 5834 5834 5835 5836 5837 5836 5837 5837 5838 5839 5839 5841 5842 5841 5840 5836 5834 5839 5845 5848 5848 5847 5848 5848 5847 5847 5844 5841 5840 5840 5839 5838 5837 5836 5835 5834 5833 5832 5831 5830 5830 5830 5829 5828 5827 5826 5825 5825 5825 5825 5824 5824 5824 5823 5823 5822 5822 5821 5820 5819 5818 5818 5817 5816 5816 5815 5815 5815 5815 5814 5814 5814 5814 5814 5814 5814 5814
5818 5819 5821 5822 5825 5827 5828 5829 5829 5828 5829 5830 5832 5832 5832 5833 5833 5834 5835 5835 5836 5837 5838 5838 5834 5830 5831 5838 5845 5844 5842 5845 5846 5844 5843 5840 5838 5837 5836 5835 5833 5832 5832 5831 5830 5829 5828 5827 5826 5826 5826 5825 5824 5823 5822 5822 5822 5821 5821 5820 5820 5820 5819 5818 5818 5818 5817 5816 5815 5814 5813 5812 5812 5811 5811 5811 5810 5810 5810 5810 5810 5810 5810 5810 5810 5810
5815 5815 5817 5818 5820 5822 5824 5825 5824 5823 5823 5825 5828 5828 5828 5829 5829 5829 5830 5830 5831 5832 5834 5833 5832 5829 5827 5831 5838 5840 5839 5842 5842 5840 5839 5837 5835 5834 5833 5831 5829 5828 5827 5827 5826 5825 5824 5823 5822 5822 5822 5821 5820 5820 5819 5818 5818 5817 5817 5816 5816 5816 5815 5814 5814 5813 5813 5812 5811 5810 5809 5808 5808 5807 5807 5807 5806 5806 5806 5806 5806 5806 5806 5806 5806 5806
5809 5810 5811 5813 5814 5816 5819 5819 5818 5818 5819 5822 5823 5823 5824 5824 5824 5824 5825 5825 5826 5827 5829 5828 5827 5827 5825 5826 5830 5833 5836 5837 5837 5837 5836 5834 5831 5830 5830 5827 5825 5824 5824 5822 5821 5820 5820 5819 5818 5818 5818 5817 5816 5816 5815 5814 5814 5813 5813 5812 5812 5811 5811 5810 5810 5809 5809 5808 5807 5806 5805 5804 5803 5803 5803 5803 5802 5802 5802 5802 5802 5802 5802 5802 5802 5802
5802 5804 5805 5807 5809 5811 5813 5814 5814 5814 5815 5817 5818 5818 5819 5818 5819 5819 5819 5821 5821 5822 5824 5823 5822 5822 5822 5823 5823 5826 5831 5831 5831 5833 5832 5830 5828 5826 5825 5823 5822 5821 5820 5819 5817 5816 5816 5815 5814 5814 5814 5813 5813 5812 5811 5810 5810 5809 5809 5808 5808 5807 5807 5806 5805 5805 5804 5804 5803 5802 5801 5800 5800 5799 5799 5799 5798 5798 5798 5798 5798 5798 5798 5797 5797 5797
5796 5798 5799 5801 5804 5806 5808 5808 5809 5810 5811 5812 5813 5813 5813 5812 5813 5814 5815 5817 5816 5817 5821 5817 5817 5817 5816 5819 5820 5821 5826 5826 5826 5828 5827 5826 5824 5822 5821 5819 5818 5818 5816 5815 5813 5812 5812 5811 5811 5810 5810 5810 5809 5808 5807 5806 5806 5805 5805 5804 5803 5803 5802 5802 5801 5800 5800 5800 5799 5798 5796 5796 5796 5795 5795 5794 5794 5794 5794 5793 5793 5793 5793 5793 5793 5793
5791 5793 5795 5797 5800 5801 5803 5804 5804 5804 5805 5806 5807 5807 5807 5807 5808 5809 5810 5812 5809 5812 5817 5812 5811 5811 5808 5812 5816 5815 5818 5821 5823 5823 5822 5821 5819 5817 5816 5815 5814 5813 5812 5810 5809 5808 5807 5807 5807 5806 5806 5806 5805 5804 5803 5802 5801 5801 5800 5799 5799 5798 5798 5798 5797 5796 5796 5795 5794 5793 5792 5792 5791 5791 5791 5790 5790 5790 5789 5789 5789 5789 5789 5789 5788 5788
5785 5788 5790 5791 5793 5795 5796 5797 5797 5798 5800 5801 5802 5803 5803 5802 5803 5803 5805 5805 5803 5807 5811 5808 5805 5804 5802 5807 5811 5811 5812 5815 5818 5819 5818 5817 5815 5812 5811 5811 5810 5809 5807 5806 5804 5804 5803 5803 5803 5802 5802 5801 5801 5800 5798 5797 5797 5796 5795 5795 5794 5794 5793 5793 5793 5792 5791 5791 5790 5789 5788 5787 5787 5787 5786 5786 5786 5785 5785 5785 5785 5785 5784 5784 5784 5783
5779 5781 5783 5784 5786 5788 5789 5791 5792 5794 5795 5796 5797 5798 5797 5797 5796 5797 5798 5797 5798 5803 5805 5803 5799 5796 5797 5802 5806 5806 5807 5809 5812 5813 5813 5812 5811 5808 5806 5806 5805 5804 5802 5801 5800 5799 5799 5799 5798 5798 5797 5797 5796 5795 5794 5793 5792 5792 5791 5791 5790 5789 5789 5789 5788 5788 5787 5786 5786 5785 5784 5783 5782 5782 5781 5781 5781 5781 5781 5781 5780 5780 5780 5779 5779 5779
5772 5774 5778 5780 5780 5783 5784 5786 5788 5789 5789 5789 5791 5791 5791 5793 5792 5790 5792 5792 5793 5797 5798 5797 5793 5792 5795 5799 5800 5800 5802 5805 5807 5807 5807 5806 5806 5804 5802 5801 5799 5797 5795 5796 5797 5796 5795 5795 5793 5792 5792 5792 5792 5791 5790 5789 5788 5788 5787 5786 5786 5785 5785 5784 5784 5783 5782 5781 5781 5780 5780 5779 5778 5777 5777 5777 5777 5776 5776 5776 5776 5775 5775 5775 5774 5774
5765 5768 5774 5774 5775 5778 5779 5781 5782 5782 5782 5783 5785 5785 5786 5790 5788 5784 5785 5787 5788 5787 5789 5791 5788 5789 5794 5794 5793 5794 5796 5800 5801 5801 5801 5800 5800 5800 5799 5797 5794 5791 5788 5789 5791 5792 5791 5791 5789 5787 5787 5787 5787 5786 5785 5784 5783 5783 5783 5782 5782 5781 5780 5780 5779 5778 5778 5777 5777 5776 5775 5774 5774 5773 5773 5772 5772 5772 5771 5771 5771 5770 5770 5770 5770 5769
5760 5762 5767 5767 5769 5772 5772 5774 5775 5775 5776 5777 5778 5780 5782 5784 5781 5779 5778 5781 5781 5778 5781 5785 5784 5786 5790 5788 5789 5790 5792 5794 5795 5794 5795 5794 5793 5794 5794 5793 5790 5787 5785 5783 5785 5786 5786 5786 5784 5783 5782 5782 5782 5781 5780 5780 5779 5778 5778 5777 5776 5776 5775 5775 5774 5774 5773 5773 5772 5771 5771 5770 5769 5769 5768 5768 5768 5767 5767 5767 5766 5766 5766 5766 5765 5764
5754 5755 5759 5760 5761 5764 5766 5766 5767 5768 5769 5770 5772 5775 5777 5775 5774 5774 5773 5774 5775 5771 5774 5779 5779 5781 5783 5781 5784 5788 5788 5788 5787 5788 5789 5787 5786 5788 5789 5787 5785 5783 5782 5780 5780 5781 5781 5780 5780 5779 5778 5777 5777 5776 5775 5774 5774 5773 5773 5772 5771 5771 5770 5770 5769 5769 5769 5768 5767 5766 5766 5765 5764 5764 5763 5763 5763 5763 5762 5762 5762 5762 5761 5760 5760 5759
5747 5747 5750 5753 5753 5756 5759 5759 5760 5762 5763 5764 5766 5769 5769 5768 5769 5770 5768 5767 5769 5766 5766 5772 5773 5774 5776 5777 5781 5783 5782 5781 5780 5781 5782 5780 5780 5783 5783 5781 5779 5778 5777 5777 5776 5776 5776 5775 5775 5774 5774 5773 5772 5771 5770 5769 5769 5768 5767 5767 5767 5766 5765 5765 5764 5764 5764 5763 5762 5761 5761 5760 5760 5759 5759 5758 5758 5758 5758 5757 5757 5756 5756 5755 5755 5754
5741 5740 5742 5745 5746 5747 5749 5751 5754 5757 5758 5758 5761 5762 5763 5763 5763 5763 5761 5760 5761 5760 5759 5762 5765 5767 5772 5776 5777 5777 5776 5775 5774 5774 5774 5773 5774 5777 5778 5776 5775 5773 5772 5772 5772 5772 5771 5771 5770 5770 5769 5768 5768 5766 5766 5765 5764 5764 5763 5762 5762 5761 5761 5760 5759 5759 5759 5758 5757 5756 5756 5755 5755 5754 5754 5753 5753 5753 5752 5752 5752 5751 5751 5750 5749 5749
5733 5732 5735 5738 5738 5738 5741 5746 5750 5752 5752 5753 5754 5755 5757 5757 5756 5755 5754 5753 5754 5753 5752 5753 5756 5762 5771 5773 5772 5772 5771 5769 5768 5767 5767 5768 5768 5770 5773 5771 5769 5768 5767 5767 5767 5767 5767 5766 5766 5765 5764 5764 5763 5762 5761 5761 5760 5759 5759 5758 5758 5757 5756 5756 5755 5754 5753 5752 5752 5751 5750 5750 5749 5749 5748 5748 5748 5747 5747 5747 5747 5746 5745 5745 5744 5743
5726 5726 5728 5729 5730 5733 5737 5741 5742 5743 5744 5745 5746 5747 5750 5750 5748 5746 5744 5745 5747 5746 5747 5748 5748 5757 5768 5769 5767 5766 5764 5762 5762 5761 5760 5762 5762 5763 5765 5766 5764 5763 5762 5761 5761 5761 5761 5761 5760 5760 5760 5759 5759 5758 5757 5756 5756 5755 5754 5754 5753 5753 5752 5751 5750 5749 5748 5747 5746 5746 5745 5744 5744 5744 5743 5743 5742 5742 5742 5742 5741 5740 5740 5739 5738 5738
5719 5718 5718 5720 5723 5727 5729 5730 5732 5733 5735 5736 5737 5740 5742 5741 5739 5738 5737 5740 5742 5741 5744 5744 5741 5751 5763 5764 5761 5759 5757 5756 5757 5756 5755 5754 5755 5756 5758 5760 5759 5756 5756 5755 5756 5755 5755 5755 5755 5755 5755 5755 5754 5754 5753 5752 5751 5750 5750 5749 5748 5747 5746 5745 5744 5743 5743 5742 5741 5740 5740 5739 5739 5738 5738 5737 5737 5737 5737 5736 5736 5735 5734 5733 5733 5732
5712 5710 5711 5714 5717 5719 5720 5722 5724 5726 5727 5727 5729 5732 5733 5732 5733 5733 5733 5736 5735 5734 5740 5738 5734 5744 5757 5758 5755 5752 5749 5749 5750 5752 5751 5748 5747 5748 5750 5753 5753 5750 5750 5750 5750 5750 5749 5748 5749 5749 5749 5749 5749 5749 5748 5747 5747 5745 5744 5743 5742 5741 5740 5739 5739 5738 5737 5737 5736 5735 5734 5734 5733 5733 5732 5732 5732 5732 5731 5731 5730 5729 5728 5727 5726 5725
5705 5704 5706 5708 5708 5710 5712 5714 5717 5720 5720 5720 5723 5726 5726 5728 5728 5727 5727 5728 5725 5728 5735 5730 5725 5738 5750 5750 5750 5748 5744 5744 5745 5745 5746 5744 5742 5741 5742 5745 5746 5744 5744 5745 5745 5744 5743 5743 5743 5743 5743 5744 5744 5743 5743 5742 5741 5740 5739 5738 5736 5735 5734 5734 5733 5733 5732 5731 5730 5730 5729 5728 5728 5727 5727 5727 5726 5726 5725 5724 5723 5723 5722 5721 5720 5719
5697 5697 5699 5699 5698 5700 5705 5709 5713 5715 5715 5714 5718 5720 5721 5722 5720 5719 5720 5718 5717 5723 5726 5719 5720 5734 5743 5742 5743 5743 5741 5740 5739 5738 5739 5738 5735 5734 5735 5737 5739 5740 5739 5739 5739 5738 5737 5737 5737 5737 5737 5738 5738 5738 5737 5737 5736 5735 5733 5732 5731 5730 5729 5728 5728 5727 5727 5726 5725 5724 5723 5723 5722 5722 5721 5721 5720 5719 5719 5718 5717 5716 5715 5714 5714 5712
5688 5688 5691 5692 5691 5694 5700 5705 5708 5707 5705 5706 5710 5712 5712 5713 5712 5712 5710 5707 5712 5717 5714 5713 5720 5728 5734 5737 5737 5738 5736 5733 5732 5731 5731 5730 5728 5728 5730 5729 5730 5733 5733 5732 5732 5731 5730 5730 5730 5731 5731 5732 5732 5732 5731 5731 5729 5728 5727 5726 5725 5725 5724 5723 5722 5722 5721 5720 5719 5718 5718 5717 5716 5715 5715 5714 5714 5713 5712 5712 5711 5710 5709 5708 5707 5706
5679 5679 5683 5685 5685 5689 5695 5700 5699 5696 5697 5699 5702 5703 5704 5705 5704 5702 5700 5703 5711 5707 5701 5711 5719 5717 5722 5731 5731 5730 5730 5727 5727 5725 5723 5723 5723 5724 5724 5721 5721 5725 5725 5724 5723 5722 5722 5722 5722 5723 5725 5725 5725 5725 5724 5723 5722 5721 5721 5720 5720 5719 5718 5717 5717 5716 5715 5714 5713 5712 5712 5711 5710 5709 5709 5708 5708 5707 5706 5706 5705 5704 5703 5701 5700 5699
5672 5672 5677 5679 5679 5683 5689 5693 5692 5690 5691 5693 5694 5695 5697 5697 5695 5694 5695 5701 5704 5695 5694 5709 5713 5706 5713 5725 5725 5724 5724 5722 5722 5719 5716 5717 5718 5717 5717 5715 5714 5717 5717 5716 5714 5713 5713 5714 5715 5717 5718 5718 5718 5717 5716 5715 5715 5714 5714 5714 5713 5713 5712 5711 5710 5710 5709 5708 5707 5706 5705 5705 5704 5703 5703 5702 5702 5701 5700 5699 5698 5697 5696 5695 5693 5693
5666 5667 5672 5673 5672 5676 5681 5685 5686 5684 5684 5686 5686 5686 5688 5688 5688 5688 5690 5695 5694 5687 5689 5700 5701 5698 5708 5717 5718 5718 5717 5716 5715 5713 5711 5712 5711 5709 5709 5708 5708 5709 5710 5708 5706 5704 5705 5707 5709 5712 5712 5711 5710 5709 5709 5708 5707 5707 5707 5707 5707 5706 5705 5704 5703 5703 5702 5701 5700 5700 5699 5698 5698 5697 5696 5696 5695 5694 5693 5692 5691 5691 5690 5688 5687 5686
5659 5662 5667 5667 5663 5665 5672 5678 5679 5677 5675 5676 5676 5678 5681 5682 5682 5683 5684 5686 5686 5681 5685 5691 5690 5692 5703 5709 5710 5711 5709 5707 5707 5705 5704 5704 5704 5703 5702 5702 5701 5701 5701 5700 5698 5697 5699 5701 5704 5705 5705 5705 5704 5702 5702 5701 5700 5700 5700 5700 5700 5699 5698 5697 5697 5696 5696 5695 5694 5693 5693 5692 5692 5691 5690 5689 5688 5687 5686 5686 5685 5684 5683 5682 5681 5680
5653 5655 5660 5659 5652 5654 5665 5671 5670 5668 5665 5662 5665 5670 5675 5677 5676 5676 5678 5681 5680 5678 5680 5682 5680 5686 5698 5703 5701 5701 5699 5697 5697 5697 5696 5697 5698 5697 5695 5696 5695 5694 5694 5693 5692 5693 5695 5696 5697 5697 5697 5697 5697 5696 5695 5694 5694 5693 5693 5693 5692 5691 5691 5690 5690 5690 5689 5689 5688 5687 5687 5686 5685 5685 5684 5683 5681 5680 5680 5679 5679 5678 5676 5675 5674 5673
5646 5647 5651 5651 5644 5647 5659 5663 5660 5658 5649 5646 5657 5668 5672 5671 5669 5669 5672 5674 5675 5674 5673 5671 5673 5681 5690 5691 5689 5691 5691 5690 5691 5690 5689 5689 5690 5689 5689 5690 5688 5687 5687 5688 5689 5690 5690 5689 5689 5688 5688 5689 5690 5690 5688 5688 5687 5686 5686 5686 5685 5684 5684 5684 5683 5683 5682 5682 5682 5681 5680 5679 5679 5678 5677 5676 5675 5674 5674 5673 5672 5671 5669 5668 5667 5665
5638 5640 5642 5643 5638 5640 5651 5655 5650 5640 5631 5638 5658 5668 5665 5662 5661 5661 5663 5667 5668 5666 5664 5665 5669 5676 5681 5682 5683 5685 5684 5683 5683 5682 5681 5682 5682 5681 5682 5682 5680 5680 5682 5683 5684 5684 5682 5681 5681 5681 5681 5681 5682 5683 5682 5681 5681 5679 5679 5678 5678 5677 5677 5677 5677 5676 5676 5676 5675 5674 5674 5672 5672 5671 5670 5669 5669 5668 5667 5666 5665 5664 5662 5661 5660 5658
5630 5632 5634 5635 5632 5633 5642 5645 5633 5621 5624 5640 5655 5658 5655 5654 5654 5652 5653 5658 5661 5659 5659 5661 5665 5670 5675 5677 5677 5676 5674 5674 5673 5673 5675 5675 5675 5675 5675 5674 5674 5675 5677 5677 5676 5675 5674 5673 5674 5674 5675 5675 5675 5675 5675 5674 5674 5673 5672 5671 5671 5670 5670 5670 5670 5669 5669 5669 5668 5668 5667 5666 5665 5664 5664 5663 5662 5662 5661 5659 5658 5656 5655 5653 5652 5650
5623 5624 5625 5626 5625 5626 5629 5628 5620 5617 5626 5637 5642 5646 5649 5648 5647 5643 5641 5647 5655 5656 5654 5656 5659 5664 5667 5668 5669 5667 5665 5664 5663 5665 5670 5671 5670 5670 5668 5668 5670 5669 5669 5669 5667 5666 5666 5666 5667 5668 5668 5668 5668 5668 5668 5667 5666 5666 5665 5664 5664 5663 5663 5663 5663 5663 5662 5662 5661 5661 5660 5660 5658 5658 5657 5656 5655 5655 5654 5652 5651 5649 5647 5645 5644 5643
5618 5617 5618 5618 5617 5618 5618 5616 5615 5616 5620 5625 5633 5642 5644 5641 5641 5638 5632 5638 5648 5650 5647 5648 5652 5657 5659 5659 5661 5659 5655 5653 5653 5660 5668 5667 5664 5663 5660 5660 5662 5661 5660 5660 5659 5659 5660 5660 5661 5661 5661 5661 5661 5660 5660 5660 5659 5659 5657 5657 5656 5656 5656 5656 5656 5656 5655 5655 5655 5654 5654 5653 5652 5651 5650 5649 5648 5647 5646 5645 5643 5642 5640 5639 5637 5636
5611 5610 5612 5610 5607 5610 5610 5607 5608 5607 5607 5618 5632 5638 5636 5634 5635 5632 5623 5625 5638 5644 5643 5643 5646 5648 5649 5649 5651 5649 5645 5642 5644 5656 5666 5662 5656 5654 5651 5651 5653 5652 5651 5652 5652 5653 5654 5653 5654 5654 5654 5654 5654 5653 5653 5652 5652 5651 5650 5650 5649 5649 5648 5649 5648 5648 5648 5648 5648 5648 5647 5646 5645 5644 5643 5641 5641 5639 5638 5637 5636 5635 5634 5632 5630 5629
5602 5602 5605 5602 5598 5601 5601 5598 5597 5596 5600 5618 5630 5630 5626 5625 5626 5623 5612 5613 5632 5643 5640 5636 5636 5637 5638 5640 5641 5639 5634 5632 5638 5651 5657 5651 5647 5646 5643 5642 5643 5643 5644 5645 5645 5646 5646 5646 5647 5647 5647 5647 5646 5646 5646 5645 5644 5644 5643 5642 5642 5641 5641 5641 5641 5641 5641 5641 5641 5641 5640 5639 5639 5637 5636 5634 5633 5632 5631 5630 5629 5628 5626 5624 5623 5622
5592 5594 5595 5591 5589 5593 5592 5589 5589 5589 5597 5615 5623 5620 5618 5618 5618 5612 5602 5609 5631 5640 5633 5628 5626 5626 5630 5633 5631 5629 5626 5627 5632 5639 5641 5639 5639 5639 5636 5635 5636 5636 5637 5638 5638 5638 5639 5639 5640 5640 5639 5639 5639 5638 5638 5637 5637 5636 5635 5635 5635 5634 5635 5634 5634 5634 5634 5634 5634 5633 5631 5631 5631 5630 5629 5627 5626 5625 5624 5624 5622 5620 5619 5617 5616 5615
5583 5585 5584 5581 5582 5585 5584 5582 5582 5583 5595 5610 5614 5610 5610 5610 5606 5601 5601 5612 5626 5628 5625 5622 5619 5618 5622 5623 5620 5619 5620 5621 5623 5627 5630 5631 5632 5632 5630 5630 5629 5629 5631 5631 5631 5632 5632 5632 5632 5632 5632 5632 5631 5631 5631 5630 5629 5629 5628 5628 5628 5627 5628 5627 5627 5627 5626 5625 5625 5624 5623 5622 5621 5621 5620 5619 5618 5618 5617 5616 5614 5613 5611 5609 5608 5607
5573 5574 5574 5574 5575 5576 5577 5577 5574 5576 5590 5604 5604 5599 5599 5598 5597 5599 5605 5611 5613 5614 5616 5615 5610 5609 5611 5611 5611 5612 5614 5615 5616 5619 5622 5623 5624 5624 5624 5623 5623 5623 5623 5624 5624 5625 5625 5625 5625 5624 5624 5624 5624 5624 5624 5623 5622 5622 5622 5621 5621 5621 5621 5620 5620 5619 5618 5617 5616 5615 5615 5614 5613 5612 5611 5610 5610 5609 5608 5607 5606 5605 5604 5602 5601 5599
5564 5563 5562 5565 5569 5570 5570 5569 5566 5570 5586 5597 5593 5587 5588 5590 5595 5598 5599 5599 5601 5603 5605 5603 5601 5601 5601 5603 5605 5606 5607 5610 5611 5611 5613 5615 5616 5617 5617 5617 5617 5616 5616 5616 5617 5617 5617 5617 5617 5617 5617 5617 5617 5617 5617 5616 5616 5615 5615 5614 5614 5613 5613 5612 5612 5611 5610 5609 5608 5607 5607 5606 5605 5604 5603 5603 5602 5601 5600 5599 5598 5597 5596 5595 5593 5591
5554 5554 5553 5557 5563 5562 5559 5560 5563 5570 5582 5586 5581 5579 5581 5585 5589 5589 5586 5588 5592 5593 5593 5594 5594 5593 5593 5595 5598 5599 5600 5603 5604 5604 5606 5606 5607 5609 5609 5610 5610 5609 5609 5610 5609 5610 5610 5609 5610 5610 5610 5610 5610 5609 5609 5609 5608 5608 5607 5607 5606 5606 5605 5605 5604 5603 5602 5601 5601 5600 5599 5598 5597 5597 5596 5595 5594 5593 5592 5591 5590 5589 5587 5586 5584 5582
5544 5550 5550 5549 5551 5551 5550 5555 5562 5566 5571 5573 5572 5574 5575 5576 5579 5579 5579 5582 5584 5583 5584 5586 5585 5585 5585 5588 5590 5591 5593 5594 5594 5596 5597 5597 5598 5600 5601 5601 5602 5602 5602 5602 5601 5602 5602 5602 5602 5602 5602 5602 5602 5601 5601 5601 5601 5600 5600 5599 5599 5598 5598 5597 5596 5595 5595 5594 5593 5592 5591 5591 5590 5589 5588 5587 5586 5585 5583 5582 5581 5580 5578 5577 5576 5574
5536 5542 5541 5538 5540 5541 5542 5547 5554 5557 5560 5562 5564 5566 5567 5568 5571 5572 5572 5573 5574 5574 5575 5577 5577 5578 5579 5579 5581 5583 5584 5584 5585 5586 5588 5589 5590 5591 5592 5593 5594 5594 5594 5594 5594 5594 5594 5593 5594 5594 5594 5594 5594 5594 5594 5594 5593 5593 5592 5592 5592 5591 5590 5589 5589 5588 5587 5586 5586 5585 5584 5583 5582 5581 5580 5579 5577 5576 5575 5574 5573 5571 5570 5569 5567 5566
5529 5531 5530 5529 5531 5531 5532 5540 5548 5550 5550 5553 5555 5556 5559 5561 5564 5564 5564 5564 5564 5565 5566 5568 5570 5571 5572 5572 5574 5575 5575 5577 5578 5578 5580 5581 5582 5583 5584 5585 5585 5585 5586 5586 5586 5586 5586 5586 5586 5586 5586 5586 5587 5587 5587 5586 5586 5585 5585 5584 5584 5583 5582 5582 5581 5580 5580 5579 5578 5577 5576 5575 5573 5572 5571 5570 5569 5568 5567 5566 5565 5563 5562 5561 5559 5557
5520 5521 5519 5520 5523 5523 5525 5533 5542 5542 5542 5545 5547 5549 5552 5554 5555 5555 5554 5553 5553 5555 5557 5560 5563 5564 5565 5566 5566 5567 5568 5569 5570 5571 5572 5573 5573 5574 5575 5575 5576 5576 5576 5576 5577 5577 5577 5577 5577 5578 5578 5578 5578 5579 5579 5578 5578 5577 5577 5576 5576 5575 5575 5574 5573 5572 5571 5570 5569 5568 5567 5566 5565 5563 5563 5562 5561 5560 5559 5557 5556 5555 5553 5552 5551 5549
5509 5510 5510 5512 5515 5516 5519 5528 5534 5534 5534 5538 5540 5541 5543 5544 5543 5542 5542 5543 5545 5548 5550 5553 5555 5557 5558 5558 5558 5559 5560 5560 5561 5562 5563 5564 5565 5565 5565 5566 5567 5567 5567 5568 5568 5568 5568 5568 5569 5569 5570 5570 5570 5570 5570 5570 5570 5569 5569 5569 5568 5567 5566 5565 5564 5564 5562 5561 5560 5559 5558 5557 5556 5555 5554 5553 5552 5551 5550 5549 5548 5546 5545 5543 5542 5540
5500 5501 5503 5504 5505 5508 5515 5524 5527 5522 5522 5528 5532 5532 5532 5532 5531 5531 5534 5536 5539 5541 5542 5544 5546 5548 5550 5550 5550 5551 5552 5553 5554 5554 5554 5556 5557 5557 5557 5558 5558 5559 5560 5560 5560 5560 5560 5560 5560 5561 5561 5562 5563 5563 5562 5562 5562 5561 5561 5560 5559 5558 5557 5556 5555 5554 5553 5552 5551 5550 5549 5548 5547 5547 5546 5545 5544 5543 5541 5540 5539 5538 5536 5534 5532 5531
5494 5494 5496 5495 5495 5500 5508 5515 5515 5510 5512 5520 5525 5523 5523 5523 5523 5524 5527 5530 5532 5533 5534 5536 5538 5540 5541 5541 5541 5543 5545 5545 5546 5546 5547 5548 5548 5549 5550 5550 5551 5551 5552 5552 5552 5553 5552 5552 5553 5554 5554 5555 5555 5555 5554 5554 5553 5552 5551 5550 5550 5549 5548 5547 5546 5545 5544 5543 5542 5541 5541 5540 5539 5539 5538 5537 5536 5535 5533 5532 5530 5529 5527 5525 5523 5520